Location: Fredericksburg
(30.2750°N, 98.8720°W)
Time: 11:36:58
(UTC-05:00)

Daily predictions for brighter satellites

Satellite Brightness Start Highest point End
(mag) Time Altitude Azimuth Time Altitude Azimuth Time Altitude Azimuth
Cosmos 1300 2.7 20:26:50 10° S 20:30:38 86° E 20:34:27 10° N
Cosmos 1346 Rocket 3.6 20:31:16 10° SSW 20:35:16 58° W 20:39:18 10° N
Cosmos 2360 Rocket 3.7 20:33:33 10° SW 20:38:50 42° WNW 20:44:08 10° N
OAO 2 Rocket 4.0 20:38:58 10° WNW 20:44:04 51° N 20:49:04 10° E
Cosmos 2333 Rocket 2.4 20:42:58 10° S 20:48:22 47° ESE 20:53:45 10° NNE
NOSS 2-1 (E) 3.9 20:45:30 10° SW 20:49:04 55° WNW 20:52:46 10° NNE
CZ-2D R/B 3.5 20:45:28 10° SSE 20:49:07 48° ENE 20:52:47 10° N
Cosmos 1633 Rocket 4.3 20:46:59 10° NNE 20:50:19 21° ENE 20:52:48 14° ESE
Meteor 2-2 Rocket 4.5 20:46:21 10° SSE 20:51:55 51° E 20:57:37 10° NNE
COSMOS 2428 2.8 20:47:46 10° SSW 20:53:30 84° WNW 20:59:15 10° NNE
Cosmos 1455 3.1 20:51:23 10° SSE 20:54:37 27° E 20:57:54 10° NNE
Cosmos 2221 3.9 20:50:52 10° SSW 20:54:54 42° W 20:58:57 10° N
Cosmos 2333 4.4 20:50:18 10° SSW 20:55:57 76° WNW 21:01:35 10° NNE
ERS-2 2.6 20:54:08 11° SE 20:57:30 41° ENE 21:00:57 10° N
NOSS 3-3 (A) 3.9 20:55:40 10° SSW 21:01:33 89° WNW 21:07:55 10° NNE
NOSS 3-3 (C) 3.9 20:55:46 10° SSW 21:01:40 90° WNW 21:08:02 10° NNE
Cosmos 1844 Rocket 3.1 20:57:17 10° N 21:02:40 43° ENE 21:06:44 17° SE
SL-8 R/B 3.7 20:59:52 10° SW 21:04:39 88° NW 21:09:27 10° NE
Cosmos 2263 Rocket 4.1 20:59:58 10° NW 21:04:51 30° WSW 21:09:41 10° SSW
Cosmos 1844 4.4 21:01:02 10° N 21:06:13 35° ENE 21:09:34 19° ESE
Cosmos 2219 Rocket 2.1 21:01:14 10° SSW 21:06:53 85° ESE 21:12:35 10° NNE
Cosmos 1892 3.4 21:03:30 10° NNE 21:07:04 34° E 21:08:58 21° SE
Cosmos 2237 Rocket 2.6 21:02:26 10° S 21:07:32 37° ESE 21:12:38 10° NE
Cosmos 494 Rocket 4.0 21:04:08 10° NNW 21:09:22 85° WSW 21:14:36 10° SSE
NOSS 3 (A) 4.4 21:07:09 10° SSW 21:09:53 51° ESE 21:12:36 10° NE
Cosmos 2154 Rocket 4.0 21:06:25 10° S 21:12:41 86° E 21:18:57 10° N
YAOGAN 6 2.8 21:12:23 23° SE 21:14:15 47° ENE 21:17:44 10° N
Cosmos 1805 Rocket 3.5 21:10:20 10° N 21:14:41 82° W 21:18:59 10° S
Cosmos 1328 Rocket 3.7 21:10:36 10° SSE 21:14:50 49° E 21:19:06 10° NNE
USA 267 4.0 21:12:31 10° ENE 21:17:59 28° SE 21:23:26 10° S
Resurs 01 Rocket 2.0 21:16:04 23° SE 21:18:30 45° ENE 21:22:44 10° N
Delta 128 4.4 21:14:07 10° W 21:19:23 58° S 21:22:52 25° ESE
Cosmos 2278 Rocket 3.6 21:18:22 10° NNE 21:22:24 20° ENE 21:23:35 18° ENE
Envisat 3.4 21:20:14 10° S 21:25:15 64° W 21:30:17 10° NNW
SAR-Lupe-3 4.4 21:22:07 10° NNE 21:25:41 69° ESE 21:28:56 12° S
Cosmos 2251 Rocket 3.5 21:22:15 10° NNW 21:27:38 75° ENE 21:31:05 23° SSE
ATLAS CENTAUR R/B 1.9 21:25:33 10° SW 21:29:04 52° WNW 21:32:43 10° NNE
Cosmos 1340 4.5 21:25:42 10° SW 21:29:08 33° W 21:32:35 10° NNW
ATLAS 3B CENTAUR R/B 3.9 21:18:37 10° W 21:31:52 38° SW 21:36:07 19° SSE
Cosmos 1470 Rocket 4.3 21:28:34 10° NNE 21:32:34 33° E 21:32:39 33° E
Fermi 4.2 21:29:51 10° WSW 21:33:46 41° S 21:34:17 39° SSE
GPS 2-05 Rocket1 3.4 21:30:37 10° W 21:33:49 41° SSW 21:34:13 39° S
Cosmos 2341 Rocket 4.0 21:28:10 10° S 21:34:32 86° E 21:40:54 10° N
Cosmos 2056 Rocket 4.4 21:35:44 30° E 21:35:44 30° E 21:39:48 10° NE
deb Centaur AC-2 4.0 21:32:55 10° W 21:37:18 86° S 21:38:52 42° E
Cosmos 2098 Rocket 4.3 21:39:29 28° ENE 21:39:29 28° ENE 21:42:14 10° NNE
Cosmos 962 Rocket 4.5 21:33:28 10° S 21:39:34 82° W 21:45:44 10° N
Cosmos 2218 Rocket 4.2 21:37:26 25° SSE 21:40:54 49° E 21:47:00 10° NNE
ASTRO E2 3.1 21:38:40 10° SW 21:42:07 44° S 21:42:07 44° S
Timation 1 Rocket 4.2 21:40:42 10° NNW 21:46:41 86° ENE 21:49:26 34° SSE
Cosmos 1825 3.9 21:44:53 10° NNE 21:46:31 20° NE 21:46:31 20° NE
NOSS 0 Rocket 4.1 21:42:13 10° SSW 21:48:21 72° WNW 21:54:32 10° NNE
USA 186 3.7 21:49:32 20° WNW 21:49:32 20° WNW 21:50:46 10° NW
Cosmos 1939 Rocket 3.5 21:50:30 29° SSW 21:52:07 50° W 21:55:54 10° NNW
Cosmos 1624 Rocket 4.2 21:52:46 46° E 21:52:46 46° E 21:57:14 10° NNE
SJ-11-01 4.2 21:51:57 41° S 21:53:35 82° WSW 21:58:16 10° NNW
Cosmos 2366 rocket 4.0 21:51:34 38° SSE 21:53:45 56° E 21:59:50 10° NNE
Resurs 1-3 4.0 21:52:14 30° S 21:54:12 60° W 21:58:32 10° NNW
SL-24 R/B - RUBIN 2 3.7 21:51:03 10° NNW 21:55:22 69° WSW 21:56:09 55° S
Cosmos 2344 4.3 21:49:40 10° S 21:58:41 30° E 22:03:28 10° NE
SL-16 R/B 3.5 21:59:34 25° NE 21:59:34 25° NE 22:02:07 10° NE
Cosmos 1869 4.5 22:02:49 33° NNE 22:02:49 33° NNE 22:05:10 10° NNE
Cosmos 1933 Rocket 3.8 21:56:58 10° N 22:00:34 53° NE 22:00:34 53° NE
Cosmos 1151 Rocket 3.3 22:01:27 36° SSW 22:03:00 63° W 22:07:13 10° N
SL-8 Rocket 4.0 21:57:20 11° S 22:03:23 86° W 22:09:42 10° N
Sakura Rocket 3.3 22:00:45 10° W 22:04:18 52° WSW 22:04:18 52° WSW
ARGOS 3.7 22:07:10 41° NE 22:07:10 41° NE 22:11:38 10° N
Cosmos 220 Rocket 4.0 22:02:46 10° NNW 22:06:39 71° N 22:06:39 71° N
Meteor 2-3 Rocket 3.9 22:01:38 10° NNW 22:07:11 67° W 22:09:43 33° SSW
Spot 2 Rocket 3.7 22:06:33 42° SSW 22:08:12 66° WSW 22:13:16 10° NNW
ATLAS 2A CENTAUR R/B 4.5 22:07:09 10° WSW 22:08:05 13° WSW 22:08:05 13° WSW
GEOS 3 Rocket 3.4 22:04:30 10° NE 22:09:49 75° ESE 22:15:00 10° SSW
ATLAS 2AS CENTAUR R/B 2.7 22:13:39 10° NNW 22:21:25 80° ENE 22:22:42 63° SE
Meteor 2-10 Rocket 3.6 22:27:11 87° WSW 22:27:14 87° W 22:33:02 10° N
OAO 2 Rocket 3.7 22:23:58 10° WNW 22:28:16 62° WNW 22:28:16 62° WNW
ATLAS 2A CENTAUR R/B 3.6 22:17:05 10° WSW 22:35:18 58° S 22:36:37 55° SE
H-2A R/B 3.1 22:48:28 38° N 22:48:28 38° N 22:51:31 10° N
ERS-1 Rocket 4.3 22:50:13 34° N 22:50:13 34° N 22:53:03 10° N
Cosmos 2237 Rocket 4.4 22:47:13 10° WSW 22:51:36 23° WNW 22:56:00 10° N
Resurs 01 Rocket 4.4 22:53:40 10° WSW 22:55:07 11° W 22:56:33 10° WNW
USA 267 3.6 22:54:41 10° NNE 23:01:06 60° NW 23:07:28 10° WSW
Cosmos 2278 Rocket 3.3 23:01:16 10° NW 23:05:28 40° WNW 23:05:28 40° WNW
SL-16 R/B 4.2 23:41:17 23° WNW 23:41:17 23° WNW 23:45:28 10° N
